Grand Prairie, TX

10:58 PM CST on November 19, 2017 (GMT -0600)
Grand Prairie Municipal

Weather History for KGPM - December, 2012

Change the Weather History Date:

Friday, December 7, 2012

  Actual Average (KRBD) Record (KRBD)
Temperature  
Mean Temperature 62 °F -  
Max Temperature 73 °F 56 °F 80 °F (2007)
Min Temperature 51 °F 39 °F 21 °F (2005)
Degree Days  
Heating Degree Days 3    
Growing Degree Days 12 (Base 50)    
Moisture  
Dew Point 50 °F    
Average Humidity 74    
Maximum Humidity 94    
Minimum Humidity 41    
Precipitation  
Precipitation 0.00 in - - ()
Sea Level Pressure  
Sea Level Pressure 29.86 in    
Wind  
Wind Speed 7 mph (SSW)    
Max Wind Speed 12 mph    
Max Gust Speed -    
Visibility 9 miles    
Events      
Averages and records for this station are not official NWS values.
T = Trace of Precipitation, MM = Missing Value Source: NWS Daily Summary

Daily Weather History Graph

Daily Weather History Graph

Search for Another Location

Airport or City:

Trip Planner

Search our weather history database for the weather conditions in past years. The results will help you decide how hot, cold, wet, or windy it might be!

Date:

Astronomy

Dec. 07, 2012 Rise Set
Actual Time 7:17 AM CST 5:22 PM CST
Civil Twilight 6:50 AM CST 5:49 PM CST
Nautical Twilight 6:19 AM CST 6:19 PM CST
Astronomical Twilight 5:50 AM CST 6:49 PM CST
Moon 12:56 AM CST (12/7) 1:03 PM CST (12/7)
Length of Visible Light 10h 58m
Length of Day
10h 04m
Last Quarter, 38% of the Moon is Illuminated
Dec 7
Last Quarter
Dec 13
New
Dec 19
First Quarter
Dec 28
Full
Jan 4
Last Quarter

Hourly Weather History & Observations

Time (CST) Temp. Dew Point Humidity Pressure Visibility Wind Dir Wind Speed Gust Speed Precip Events Conditions
12:15 AM 59.0 °F 50.0 °F 72% 29.85 in 10.0 mi South 5.8 mph - N/A   Clear
12:35 AM 59.0 °F 51.8 °F 77% 29.85 in 10.0 mi South 8.1 mph - N/A   Clear
12:55 AM 59.0 °F 51.8 °F 77% 29.84 in 10.0 mi South 6.9 mph - N/A   Clear
1:15 AM 59.0 °F 51.8 °F 77% 29.84 in 10.0 mi South 6.9 mph - N/A   Clear
1:35 AM 59.0 °F 51.8 °F 77% 29.84 in 10.0 mi South 9.2 mph - N/A   Clear
1:55 AM 59.0 °F 51.8 °F 77% 29.84 in 10.0 mi SSW 8.1 mph - N/A   Clear
2:15 AM 57.2 °F 51.8 °F 82% 29.84 in 10.0 mi South 6.9 mph - N/A   Clear
2:35 AM 57.2 °F 51.8 °F 82% 29.84 in 10.0 mi South 6.9 mph - N/A   Clear
2:55 AM 55.4 °F 51.8 °F 88% 29.84 in 10.0 mi South 6.9 mph - N/A   Clear
3:15 AM 55.4 °F 51.8 °F 88% 29.84 in 7.0 mi South 8.1 mph - N/A   Clear
3:35 AM 55.4 °F 51.8 °F 88% 29.84 in 10.0 mi South 4.6 mph - N/A   Clear
3:55 AM 55.4 °F 51.8 °F 88% 29.84 in 10.0 mi SSW 8.1 mph - N/A   Clear
4:15 AM 55.4 °F 51.8 °F 88% 29.85 in 10.0 mi SSW 6.9 mph - N/A   Clear
4:35 AM 55.4 °F 51.8 °F 88% 29.85 in 7.0 mi SW 6.9 mph - N/A   Clear
4:55 AM 55.4 °F 51.8 °F 88% 29.85 in 7.0 mi SSW 8.1 mph - N/A   Clear
5:15 AM 53.6 °F 51.8 °F 94% 29.85 in 5.0 mi SSW 9.2 mph - N/A   Clear
5:35 AM 53.6 °F 51.8 °F 94% 29.86 in 5.0 mi SSW 9.2 mph - N/A   Clear
5:55 AM 53.6 °F 51.8 °F 94% 29.86 in 5.0 mi SSW 6.9 mph - N/A   Clear
7:50 AM 51.8 °F 42.8 °F 71% 29.90 in 10.0 mi SW 6.9 mph - N/A   Clear
8:50 AM 51.8 °F 41.0 °F 67% 29.91 in 10.0 mi SW 6.9 mph - N/A   Clear
9:50 AM 53.6 °F 41.0 °F 62% 29.93 in 10.0 mi SSW 5.8 mph - N/A   Clear
10:50 AM 57.2 °F 42.8 °F 59% 29.91 in 10.0 mi SW 5.8 mph - N/A   Clear
11:50 AM 62.6 °F 44.6 °F 52% 29.89 in 10.0 mi SW 6.9 mph - N/A   Clear
12:50 PM 68.0 °F 44.6 °F 43% 29.84 in 10.0 mi SSW 4.6 mph - N/A   Clear
1:50 PM 71.6 °F 46.4 °F 41% 29.82 in 10.0 mi SSW 5.8 mph - N/A   Clear
2:50 PM 73.4 °F 48.2 °F 41% 29.81 in 10.0 mi SSW 8.1 mph - N/A   Clear
4:50 PM 71.6 °F 53.6 °F 53% 29.82 in 10.0 mi South 8.1 mph - N/A   Clear
8:15 PM 62.6 °F 55.4 °F 77% 29.85 in 10.0 mi Calm Calm - N/A   Clear
8:35 PM 62.6 °F 55.4 °F 77% 29.86 in 10.0 mi WNW 3.5 mph - N/A   Clear
8:55 PM 60.8 °F 55.4 °F 82% 29.86 in 10.0 mi Calm Calm - N/A   Clear
9:15 PM 59.0 °F 53.6 °F 82% 29.87 in 10.0 mi Calm Calm - N/A   Scattered Clouds
9:35 PM 60.8 °F 53.6 °F 77% 29.88 in 10.0 mi Calm Calm - N/A   Mostly Cloudy
9:55 PM 60.8 °F 53.6 °F 77% 29.88 in 10.0 mi North 11.5 mph - N/A   Mostly Cloudy
10:15 PM 59.0 °F 48.2 °F 67% 29.89 in 10.0 mi NNE 5.8 mph - N/A   Scattered Clouds
10:55 PM 57.2 °F 46.4 °F 67% 29.91 in 10.0 mi North 8.1 mph - N/A   Scattered Clouds
11:15 PM 57.2 °F 46.4 °F 67% 29.91 in 10.0 mi North 10.4 mph - N/A   Clear
11:35 PM 55.4 °F 46.4 °F 72% 29.91 in 10.0 mi North 9.2 mph - N/A   Scattered Clouds
11:55 PM 55.4 °F 46.4 °F 72% 29.91 in 10.0 mi North 10.4 mph - N/A   Scattered Clouds